LAN142 SCRM-EGYP

Flight info

Callsign LAN142
Flight time 1h 46m
Altitude 37000
Route EIKEN1 KRILL DCT VURGI/N0455F380 UT103 MTP
Aircraft A319/M-SDE3FGHIRWY/LB1

Departure

Time 2026-04-23 07:35
Airport Teniente Rodolfo Marsh Martin Airport (SCRM)

Arrival

Time 2026-04-23 09:21
Airport Mount Pleasant Airport / RAF Mount Pleasant (EGYP)
Time Latitude Longitude Altitude Speed Heading
2026-04-23 06:59 -62.19216 -58.98857 124 ft 0 kts 204°
2026-04-23 07:22 -62.19201 -58.98844 124 ft 4 kts 199°
2026-04-23 07:22 -62.19176 -58.98827 121 ft 4 kts 194°
2026-04-23 07:22 -62.19150 -58.98813 122 ft 4 kts 200°
2026-04-23 07:22 -62.19126 -58.98791 119 ft 4 kts 213°
2026-04-23 07:23 -62.19106 -58.98754 120 ft 4 kts 234°
2026-04-23 07:23 -62.19100 -58.98734 125 ft 5 kts 238°
2026-04-23 07:33 -62.19106 -58.98754 120 ft 8 kts 235°
2026-04-23 07:33 -62.19136 -58.98783 120 ft 2 kts 295°
2026-04-23 07:33 -62.19083 -58.98716 124 ft 4 kts 103°
2026-04-23 07:33 -62.19101 -58.98593 132 ft 25 kts 114°
2026-04-23 07:34 -62.19234 -58.98055 136 ft 46 kts 118°
2026-04-23 07:34 -62.19346 -58.97678 133 ft 14 kts 127°
2026-04-23 07:34 -62.19338 -58.97644 133 ft 2 kts 19°
2026-04-23 07:34 -62.19324 -58.97682 133 ft 4 kts 274°
2026-04-23 07:35 -62.19300 -58.97785 134 ft 31 kts 297°
2026-04-23 07:35 -62.18892 -58.99449 156 ft 152 kts 297°
2026-04-23 07:35 -62.18581 -59.00836 665 ft 155 kts 303°
2026-04-23 07:35 -62.18102 -59.02868 1791 ft 151 kts 301°
2026-04-23 07:36 -62.17623 -59.04792 2683 ft 146 kts 306°
2026-04-23 07:36 -62.16812 -59.06335 3159 ft 169 kts 324°
2026-04-23 07:36 -62.15765 -59.07847 3735 ft 194 kts 325°
2026-04-23 07:36 -62.14580 -59.09571 4389 ft 218 kts 324°
2026-04-23 07:37 -62.13281 -59.11549 5203 ft 237 kts 323°
2026-04-23 07:37 -62.11944 -59.13683 6265 ft 242 kts 322°
2026-04-23 07:37 -62.10602 -59.15906 7413 ft 245 kts 321°
2026-04-23 07:37 -62.09262 -59.18186 8562 ft 248 kts 321°
2026-04-23 07:38 -62.07902 -59.20535 9428 ft 260 kts 321°
2026-04-23 07:38 -62.06433 -59.23086 9870 ft 284 kts 321°
2026-04-23 07:38 -62.04837 -59.25867 10242 ft 308 kts 321°
2026-04-23 07:38 -62.03137 -59.28835 10795 ft 322 kts 321°
2026-04-23 07:39 -62.01387 -59.31897 11595 ft 328 kts 321°
2026-04-23 07:39 -61.99611 -59.35010 12403 ft 334 kts 320°
2026-04-23 07:39 -61.97805 -59.38175 13176 ft 338 kts 321°
2026-04-23 07:39 -61.96009 -59.41317 13983 ft 340 kts 321°
2026-04-23 07:40 -61.94178 -59.44506 14870 ft 341 kts 321°
2026-04-23 07:40 -61.92343 -59.47694 15735 ft 341 kts 322°
2026-04-23 07:40 -61.90504 -59.50891 16616 ft 342 kts 322°
2026-04-23 07:40 -61.88658 -59.54102 17425 ft 345 kts 322°
2026-04-23 07:41 -61.86795 -59.57336 18143 ft 347 kts 322°
2026-04-23 07:41 -61.84919 -59.60586 18848 ft 349 kts 322°
2026-04-23 07:41 -61.83030 -59.63846 19542 ft 352 kts 322°
2026-04-23 07:41 -61.81126 -59.67124 20209 ft 354 kts 322°
2026-04-23 07:42 -61.79209 -59.70417 20859 ft 356 kts 322°
2026-04-23 07:42 -61.77281 -59.73722 21484 ft 358 kts 322°
2026-04-23 07:42 -61.75338 -59.77046 22095 ft 360 kts 322°
2026-04-23 07:42 -61.73383 -59.80388 22663 ft 363 kts 322°
2026-04-23 07:43 -61.71417 -59.83746 23172 ft 365 kts 322°
2026-04-23 07:43 -61.69444 -59.87113 23695 ft 366 kts 322°
2026-04-23 07:43 -61.67461 -59.90493 24214 ft 367 kts 322°
2026-04-23 07:43 -61.65498 -59.93830 24716 ft 368 kts 322°
2026-04-23 07:44 -61.63507 -59.97204 25281 ft 367 kts 322°
2026-04-23 07:44 -61.61516 -60.00575 25800 ft 368 kts 321°
2026-04-23 07:44 -61.59521 -60.03951 26286 ft 368 kts 321°
2026-04-23 07:44 -61.57522 -60.07330 26756 ft 369 kts 321°
2026-04-23 07:45 -61.55518 -60.10715 27212 ft 371 kts 321°
2026-04-23 07:45 -61.53505 -60.14107 27649 ft 372 kts 321°
2026-04-23 07:45 -61.51483 -60.17502 28082 ft 373 kts 321°
2026-04-23 07:45 -61.49458 -60.20897 28615 ft 372 kts 321°
2026-04-23 07:46 -61.47449 -60.24260 29203 ft 368 kts 321°
2026-04-23 07:46 -61.45448 -60.27603 29642 ft 368 kts 321°
2026-04-23 07:46 -61.43442 -60.30945 29999 ft 370 kts 321°
2026-04-23 07:46 -61.41423 -60.34304 30348 ft 372 kts 320°
2026-04-23 07:47 -61.39395 -60.37673 30703 ft 374 kts 320°
2026-04-23 07:47 -61.37356 -60.41058 31065 ft 375 kts 320°
2026-04-23 07:47 -61.35309 -60.44456 31425 ft 377 kts 320°
2026-04-23 07:47 -61.33249 -60.47864 31782 ft 379 kts 320°
2026-04-23 07:48 -61.31178 -60.51281 32127 ft 381 kts 319°
2026-04-23 07:48 -61.29092 -60.54714 32487 ft 383 kts 319°
2026-04-23 07:48 -61.26997 -60.58156 32854 ft 385 kts 319°
2026-04-23 07:48 -61.24819 -60.61424 33160 ft 390 kts 326°
2026-04-23 07:49 -61.22338 -60.63638 33449 ft 399 kts 339°
2026-04-23 07:49 -61.19558 -60.64534 33769 ft 412 kts 352°
2026-04-23 07:49 -61.16625 -60.63890 34096 ft 427 kts
2026-04-23 07:49 -61.13841 -60.61679 34437 ft 441 kts 18°
2026-04-23 07:50 -61.11101 -60.58830 34830 ft 441 kts 19°
2026-04-23 07:50 -61.08366 -60.55975 35196 ft 440 kts 19°
2026-04-23 07:50 -61.05630 -60.53130 35552 ft 440 kts 19°
2026-04-23 07:50 -61.02890 -60.50304 35855 ft 441 kts 19°
2026-04-23 07:51 -61.00147 -60.47487 35925 ft 440 kts 19°
2026-04-23 07:51 -60.94699 -60.41908 35934 ft 435 kts 19°
2026-04-23 07:52 -60.89281 -60.36380 35946 ft 434 kts 19°
2026-04-23 07:52 -60.83866 -60.30889 35945 ft 434 kts 19°
2026-04-23 07:53 -60.78448 -60.25413 35956 ft 434 kts 19°
2026-04-23 07:53 -60.73032 -60.19959 35956 ft 434 kts 19°
2026-04-23 07:54 -60.67615 -60.14511 35948 ft 434 kts 19°
2026-04-23 07:54 -60.62214 -60.09102 35947 ft 431 kts 18°
2026-04-23 07:55 -60.56827 -60.03740 35964 ft 431 kts 18°
2026-04-23 07:55 -60.51447 -59.98402 35980 ft 430 kts 18°
2026-04-23 07:56 -60.46071 -59.93092 35976 ft 429 kts 18°
2026-04-23 07:56 -60.40703 -59.87803 35968 ft 429 kts 18°
2026-04-23 07:57 -60.35372 -59.82569 35980 ft 429 kts 18°
2026-04-23 07:57 -60.29966 -59.77290 35960 ft 429 kts 17°
2026-04-23 07:58 -60.24624 -59.72079 35981 ft 430 kts 18°
2026-04-23 07:58 -60.19248 -59.66846 35991 ft 429 kts 17°
2026-04-23 07:59 -60.13883 -59.61638 35993 ft 428 kts 17°
2026-04-23 07:59 -60.08518 -59.56467 36001 ft 428 kts 17°
2026-04-23 08:00 -60.03152 -59.51321 35999 ft 427 kts 17°
2026-04-23 08:00 -59.97793 -59.46187 35980 ft 427 kts 17°
2026-04-23 08:01 -59.92425 -59.41068 35995 ft 428 kts 17°
2026-04-23 08:01 -59.87055 -59.35974 35999 ft 427 kts 17°
2026-04-23 08:02 -59.81683 -59.30904 36003 ft 427 kts 17°
2026-04-23 08:02 -59.76315 -59.25832 36007 ft 427 kts 17°
2026-04-23 08:03 -59.70950 -59.20773 36023 ft 427 kts 17°
2026-04-23 08:03 -59.65582 -59.15743 35968 ft 427 kts 17°
2026-04-23 08:04 -59.60175 -59.10711 36027 ft 431 kts 17°
2026-04-23 08:04 -59.54791 -59.05695 36042 ft 431 kts 17°
2026-04-23 08:05 -59.49373 -59.00653 36044 ft 430 kts 17°
2026-04-23 08:05 -59.43951 -58.95652 36057 ft 430 kts 17°
2026-04-23 08:06 -59.38530 -58.90685 36047 ft 430 kts 17°
2026-04-23 08:06 -59.33110 -58.85711 36009 ft 430 kts 18°
2026-04-23 08:07 -59.27671 -58.80740 36070 ft 433 kts 18°
2026-04-23 08:07 -59.22210 -58.75771 36073 ft 432 kts 18°
2026-04-23 08:08 -59.16756 -58.70819 36084 ft 432 kts 18°
2026-04-23 08:08 -59.11306 -58.65878 36082 ft 432 kts 18°
2026-04-23 08:09 -59.05849 -58.60966 36092 ft 432 kts 17°
2026-04-23 08:09 -59.00391 -58.56063 36048 ft 432 kts 17°
2026-04-23 08:10 -58.94929 -58.51185 36077 ft 433 kts 17°
2026-04-23 08:10 -58.86729 -58.43887 36104 ft 432 kts 17°
2026-04-23 08:11 -58.81263 -58.39024 36110 ft 433 kts 17°
2026-04-23 08:11 -58.75796 -58.34182 36126 ft 432 kts 17°
2026-04-23 08:12 -58.70325 -58.29362 36125 ft 432 kts 17°
2026-04-23 08:12 -58.64854 -58.24578 36122 ft 432 kts 16°
2026-04-23 08:13 -58.59377 -58.19778 36132 ft 433 kts 16°
2026-04-23 08:13 -58.53900 -58.14998 36151 ft 432 kts 16°
2026-04-23 08:14 -58.48420 -58.10238 36147 ft 432 kts 16°
2026-04-23 08:14 -58.42944 -58.05501 36152 ft 432 kts 15°
2026-04-23 08:15 -58.37471 -58.00781 36172 ft 432 kts 15°
2026-04-23 08:15 -58.32030 -57.96109 36175 ft 432 kts 15°
2026-04-23 08:16 -58.26550 -57.91407 36193 ft 432 kts 15°
2026-04-23 08:16 -58.21075 -57.86733 36191 ft 431 kts 15°
2026-04-23 08:17 -58.15599 -57.82079 36189 ft 431 kts 15°
2026-04-23 08:17 -58.10127 -57.77446 36187 ft 431 kts 15°
2026-04-23 08:18 -58.04656 -57.72819 36189 ft 431 kts 15°
2026-04-23 08:18 -57.99048 -57.69723 36197 ft 413 kts 359°
2026-04-23 08:19 -57.93451 -57.69832 36205 ft 402 kts 349°
2026-04-23 08:19 -57.87868 -57.70611 36208 ft 402 kts 349°
2026-04-23 08:20 -57.82285 -57.71375 36224 ft 402 kts 349°
2026-04-23 08:20 -57.76706 -57.72132 36222 ft 402 kts 349°
2026-04-23 08:21 -57.71130 -57.72889 36220 ft 402 kts 349°
2026-04-23 08:21 -57.65553 -57.73639 36226 ft 402 kts 349°
2026-04-23 08:22 -57.59980 -57.74422 36245 ft 401 kts 349°
2026-04-23 08:22 -57.54411 -57.75180 36244 ft 401 kts 349°
2026-04-23 08:23 -57.48842 -57.75929 36191 ft 401 kts 349°
2026-04-23 08:23 -57.43279 -57.76695 36216 ft 401 kts 349°
2026-04-23 08:24 -57.37716 -57.77457 36218 ft 401 kts 349°
2026-04-23 08:24 -57.32149 -57.78197 36244 ft 401 kts 349°
2026-04-23 08:25 -57.26586 -57.78924 36249 ft 401 kts 349°
2026-04-23 08:25 -57.21023 -57.79673 36250 ft 401 kts 349°
2026-04-23 08:26 -57.15460 -57.80401 36246 ft 401 kts 349°
2026-04-23 08:26 -57.09898 -57.81121 36262 ft 400 kts 349°
2026-04-23 08:27 -57.05278 -57.81730 36268 ft 400 kts 349°
2026-04-23 08:27 -56.99727 -57.82459 36271 ft 400 kts 349°
2026-04-23 08:28 -56.94182 -57.83193 36266 ft 400 kts 349°
2026-04-23 08:28 -56.88629 -57.83931 36273 ft 401 kts 349°
2026-04-23 08:29 -56.83061 -57.84672 36260 ft 401 kts 350°
2026-04-23 08:29 -56.77498 -57.85382 36272 ft 400 kts 350°
2026-04-23 08:30 -56.71943 -57.86091 36277 ft 400 kts 350°
2026-04-23 08:30 -56.66434 -57.86798 36292 ft 399 kts 349°
2026-04-23 08:31 -56.60892 -57.87530 36296 ft 399 kts 349°
2026-04-23 08:31 -56.55353 -57.88244 36294 ft 399 kts 350°
2026-04-23 08:32 -56.49818 -57.88951 36290 ft 399 kts 350°
2026-04-23 08:32 -56.44284 -57.89658 36306 ft 398 kts 350°
2026-04-23 08:33 -56.38755 -57.90362 36302 ft 398 kts 350°
2026-04-23 08:33 -56.33228 -57.91072 36293 ft 399 kts 350°
2026-04-23 08:34 -56.27696 -57.91778 36304 ft 398 kts 350°
2026-04-23 08:34 -56.22167 -57.92479 36315 ft 398 kts 350°
2026-04-23 08:35 -56.16642 -57.93167 36320 ft 398 kts 350°
2026-04-23 08:35 -56.11125 -57.93859 36321 ft 397 kts 350°
2026-04-23 08:36 -56.05614 -57.94552 36320 ft 397 kts 350°
2026-04-23 08:36 -56.00102 -57.95248 36338 ft 397 kts 350°
2026-04-23 08:37 -55.94593 -57.95935 36333 ft 397 kts 350°
2026-04-23 08:37 -55.89082 -57.96617 36322 ft 397 kts 350°
2026-04-23 08:38 -55.83607 -57.97286 36326 ft 397 kts 351°
2026-04-23 08:38 -55.78073 -57.97969 36337 ft 400 kts 350°
2026-04-23 08:39 -55.72522 -57.98656 36338 ft 400 kts 351°
2026-04-23 08:39 -55.66975 -57.99331 36337 ft 399 kts 350°
2026-04-23 08:40 -55.61433 -58.00005 36330 ft 400 kts 351°
2026-04-23 08:40 -55.55882 -58.00689 36349 ft 400 kts 351°
2026-04-23 08:41 -55.50322 -58.01374 36350 ft 401 kts 351°
2026-04-23 08:41 -55.44760 -58.02049 36353 ft 401 kts 351°
2026-04-23 08:42 -55.39196 -58.02726 36374 ft 401 kts 351°
2026-04-23 08:42 -55.33628 -58.03394 36377 ft 401 kts 351°
2026-04-23 08:43 -55.28099 -58.04057 36323 ft 401 kts 351°
2026-04-23 08:43 -55.22502 -58.04735 36370 ft 404 kts 351°
2026-04-23 08:44 -55.16898 -58.05405 36383 ft 403 kts 351°
2026-04-23 08:44 -55.11295 -58.06066 36386 ft 403 kts 351°
2026-04-23 08:45 -55.05694 -58.06729 36392 ft 403 kts 351°
2026-04-23 08:45 -55.00094 -58.07399 36378 ft 403 kts 351°
2026-04-23 08:46 -54.94492 -58.08070 36393 ft 403 kts 351°
2026-04-23 08:46 -54.88884 -58.08726 36396 ft 404 kts 351°
2026-04-23 08:47 -54.83279 -58.09376 36396 ft 404 kts 351°
2026-04-23 08:47 -54.77667 -58.10024 36396 ft 404 kts 351°
2026-04-23 08:48 -54.72057 -58.10656 36384 ft 404 kts 351°
2026-04-23 08:48 -54.66433 -58.11309 36394 ft 405 kts 351°
2026-04-23 08:49 -54.60810 -58.11963 36399 ft 405 kts 351°
2026-04-23 08:49 -54.55188 -58.12610 36402 ft 405 kts 351°
2026-04-23 08:50 -54.49561 -58.13248 36419 ft 406 kts 351°
2026-04-23 08:50 -54.43966 -58.13880 36422 ft 406 kts 351°
2026-04-23 08:51 -54.38335 -58.14520 36423 ft 406 kts 351°
2026-04-23 08:51 -54.32704 -58.15163 36440 ft 405 kts 351°
2026-04-23 08:52 -54.27073 -58.15805 36439 ft 406 kts 351°
2026-04-23 08:52 -54.21441 -58.16450 36406 ft 406 kts 351°
2026-04-23 08:53 -54.15801 -58.17084 36411 ft 406 kts 352°
2026-04-23 08:53 -54.10159 -58.17717 36434 ft 406 kts 352°
2026-04-23 08:54 -54.04517 -58.18349 36440 ft 406 kts 352°
2026-04-23 08:54 -53.98875 -58.18974 36442 ft 406 kts 352°
2026-04-23 08:55 -53.93275 -58.19587 36446 ft 406 kts 352°
2026-04-23 08:55 -53.87636 -58.20217 36453 ft 406 kts 352°
2026-04-23 08:56 -53.82000 -58.20836 36453 ft 406 kts 352°
2026-04-23 08:56 -53.76361 -58.21456 36451 ft 406 kts 352°
2026-04-23 08:57 -53.70721 -58.22074 36415 ft 406 kts 352°
2026-04-23 08:57 -53.65074 -58.22701 36465 ft 407 kts 352°
2026-04-23 08:58 -53.59424 -58.23330 36461 ft 407 kts 352°
2026-04-23 08:58 -53.53774 -58.23948 36463 ft 407 kts 352°
2026-04-23 08:59 -53.48123 -58.24564 36472 ft 407 kts 352°
2026-04-23 08:59 -53.42471 -58.25165 36473 ft 407 kts 352°
2026-04-23 09:00 -53.36819 -58.25778 36475 ft 407 kts 352°
2026-04-23 09:00 -53.31173 -58.26389 36466 ft 407 kts 352°
2026-04-23 09:01 -53.25518 -58.26988 36457 ft 408 kts 352°
2026-04-23 09:01 -53.22684 -58.27295 36191 ft 408 kts 352°
2026-04-23 09:01 -53.19890 -58.27601 35933 ft 408 kts 352°
2026-04-23 09:02 -53.17059 -58.27913 35675 ft 407 kts 352°
2026-04-23 09:02 -53.14231 -58.28227 35419 ft 407 kts 352°
2026-04-23 09:02 -53.11406 -58.28536 35167 ft 407 kts 352°
2026-04-23 09:02 -53.08581 -58.28833 34926 ft 407 kts 353°
2026-04-23 09:03 -53.05740 -58.28760 34674 ft 410 kts 358°
2026-04-23 09:03 -53.02892 -58.28489 34431 ft 410 kts 358°
2026-04-23 09:03 -53.00041 -58.28233 34187 ft 411 kts 358°
2026-04-23 09:03 -52.97192 -58.27987 33639 ft 411 kts 358°
2026-04-23 09:04 -52.94316 -58.27748 32596 ft 416 kts 358°
2026-04-23 09:04 -52.91418 -58.27507 31571 ft 418 kts 358°
2026-04-23 09:04 -52.88498 -58.27265 30443 ft 422 kts 358°
2026-04-23 09:04 -52.85554 -58.27020 29304 ft 425 kts 358°
2026-04-23 09:05 -52.82595 -58.26771 28015 ft 426 kts 358°
2026-04-23 09:05 -52.79635 -58.26516 26784 ft 426 kts 359°
2026-04-23 09:05 -52.76676 -58.26258 25609 ft 425 kts 359°
2026-04-23 09:05 -52.73730 -58.25998 24445 ft 423 kts 359°
2026-04-23 09:06 -52.70797 -58.25738 23370 ft 420 kts 359°
2026-04-23 09:06 -52.67888 -58.25488 22185 ft 417 kts 359°
2026-04-23 09:06 -52.65009 -58.25243 21008 ft 412 kts 359°
2026-04-23 09:06 -52.62160 -58.25004 19884 ft 408 kts 359°
2026-04-23 09:07 -52.59343 -58.24768 18815 ft 403 kts 359°
2026-04-23 09:07 -52.56559 -58.24534 17805 ft 398 kts 359°
2026-04-23 09:07 -52.53849 -58.24306 16686 ft 392 kts 359°
2026-04-23 09:07 -52.51103 -58.24073 15591 ft 387 kts 359°
2026-04-23 09:08 -52.48465 -58.23850 14572 ft 383 kts 358°
2026-04-23 09:08 -52.45815 -58.23627 13583 ft 380 kts 358°
2026-04-23 09:08 -52.43183 -58.23407 12531 ft 378 kts 358°
2026-04-23 09:08 -52.40579 -58.23186 11486 ft 370 kts 359°
2026-04-23 09:09 -52.38052 -58.22967 10761 ft 354 kts 359°
2026-04-23 09:09 -52.35696 -58.22755 10583 ft 324 kts 359°
2026-04-23 09:09 -52.33533 -58.22556 10459 ft 299 kts 358°
2026-04-23 09:09 -52.31526 -58.22380 10279 ft 280 kts 358°
2026-04-23 09:10 -52.29616 -58.22225 10021 ft 271 kts 358°
2026-04-23 09:10 -52.25883 -58.21929 9537 ft 267 kts 358°
2026-04-23 09:10 -52.24029 -58.21786 9384 ft 266 kts 358°
2026-04-23 09:11 -52.22178 -58.21640 9257 ft 266 kts 358°
2026-04-23 09:11 -52.20331 -58.21493 9116 ft 266 kts 358°
2026-04-23 09:11 -52.18486 -58.21341 8991 ft 265 kts 358°
2026-04-23 09:11 -52.16645 -58.21188 8853 ft 265 kts 358°
2026-04-23 09:12 -52.14797 -58.21036 8718 ft 266 kts 358°
2026-04-23 09:12 -52.12946 -58.20884 8391 ft 268 kts 358°
2026-04-23 09:12 -52.11075 -58.20732 7949 ft 267 kts 358°
2026-04-23 09:12 -52.09227 -58.20577 7552 ft 265 kts 358°
2026-04-23 09:13 -52.07389 -58.20423 7136 ft 264 kts 358°
2026-04-23 09:13 -52.05560 -58.20271 6750 ft 262 kts 358°
2026-04-23 09:13 -52.03743 -58.20122 6361 ft 261 kts 358°
2026-04-23 09:13 -52.01944 -58.19974 5864 ft 258 kts 358°
2026-04-23 09:14 -52.00159 -58.19828 5311 ft 256 kts 358°
2026-04-23 09:14 -51.98383 -58.19684 4743 ft 256 kts 358°
2026-04-23 09:14 -51.96591 -58.19541 4038 ft 260 kts 358°
2026-04-23 09:14 -51.94796 -58.19392 3624 ft 253 kts 358°
2026-04-23 09:15 -51.93102 -58.19239 3514 ft 235 kts 357°
2026-04-23 09:15 -51.91541 -58.19098 3463 ft 213 kts 357°
2026-04-23 09:15 -51.90164 -58.18971 3411 ft 184 kts 356°
2026-04-23 09:15 -51.88960 -58.18863 3348 ft 165 kts 355°
2026-04-23 09:16 -51.87866 -58.19123 3320 ft 156 kts 336°
2026-04-23 09:16 -51.86945 -58.19960 3284 ft 149 kts 319°
2026-04-23 09:16 -51.86307 -58.21153 3122 ft 135 kts 303°
2026-04-23 09:16 -51.85977 -58.22459 2955 ft 124 kts 290°
2026-04-23 09:17 -51.85761 -58.23766 2797 ft 118 kts 291°
2026-04-23 09:17 -51.85551 -58.25027 2645 ft 115 kts 292°
2026-04-23 09:17 -51.85344 -58.26265 2484 ft 114 kts 292°
2026-04-23 09:17 -51.85136 -58.27505 2327 ft 114 kts 293°
2026-04-23 09:18 -51.84931 -58.28734 2176 ft 113 kts 292°
2026-04-23 09:18 -51.84726 -58.29961 2021 ft 114 kts 292°
2026-04-23 09:18 -51.84519 -58.31196 1855 ft 113 kts 294°
2026-04-23 09:18 -51.84314 -58.32421 1705 ft 113 kts 293°
2026-04-23 09:19 -51.84110 -58.33639 1526 ft 112 kts 293°
2026-04-23 09:19 -51.83907 -58.34853 1402 ft 112 kts 292°
2026-04-23 09:19 -51.83703 -58.36063 1291 ft 111 kts 295°
2026-04-23 09:19 -51.83499 -58.37278 1049 ft 112 kts 292°
2026-04-23 09:20 -51.83297 -58.38492 903 ft 111 kts 294°
2026-04-23 09:20 -51.83097 -58.39680 748 ft 109 kts 293°
2026-04-23 09:20 -51.82966 -58.40464 711 ft 109 kts 295°
2026-04-23 09:20 -51.82767 -58.41648 562 ft 109 kts 294°
2026-04-23 09:21 -51.82567 -58.42826 407 ft 109 kts 294°
2026-04-23 09:21 -51.82365 -58.44021 292 ft 109 kts 292°
2026-04-23 09:21 -51.82190 -58.45066 264 ft 66 kts 285°
2026-04-23 09:21 -51.82100 -58.45353 264 ft 17 kts 10°
2026-04-23 09:22 -51.82045 -58.45231 262 ft 1 kts 59°
2026-04-23 09:22 -51.82027 -58.45177 259 ft 11 kts 62°
2026-04-23 09:22 -51.82006 -58.45093 260 ft 6 kts 45°
2026-04-23 09:22 -51.81974 -58.45076 260 ft 0 kts 14°